This demonstration page uses our WeatherBlox Daily Observations layout. Learn more.

Left ArrowRight Arrow

30.00354, -91.81873

Hourly Observations for September 28, 2022

Temp ( °F °C ) Dew Point ( °F °C ) Humidity (%) Winds ( mph kmh ) Pressure ( in mb ) Visibility ( mi km ) Precip ( " mm )
12:53 am 00:53 Clear 65 18.3 49 9.4 56 56 N 10 17 30.10 1019 10 16 0.00 0.00
1:53 am 01:53 Clear 66 18.9 49 9.4 54 54 NNE 8 13 30.11 1020 10 16 0.00 0.00
2:53 am 02:53 Clear 64 17.8 50 10 60 60 NE 9 15 30.12 1020 10 16 0.00 0.00
3:53 am 03:53 Clear 58 14.4 49 9.4 72 72 N 6 9 30.12 1020 10 16 0.00 0.00
4:53 am 04:53 Clear 60 15.6 49 9.4 67 67 N 7 11 30.13 1020 10 16 0.00 0.00
5:53 am 05:53 Clear 59 15 49 9.4 69 69 NNE 7 11 30.15 1021 10 16 0.00 0.00
6:53 am 06:53 Clear 58 14.4 49 9.4 72 72 NNE 8 13 30.16 1021 10 16 0.00 0.00
7:53 am 07:53 Sunny 63 17.2 50 10 63 63 NNE 10 17 30.17 1022 10 16 0.00 0.00
8:53 am 08:53 Sunny 67 19.4 48 8.9 51 51 NE 13 20 30.18 1022 10 16 0.00 0.00
9:53 am 09:53 Sunny 74 23.3 48 8.9 40 40 ENE 15 24 30.19 1022 10 16 0.00 0.00
10:53 am 10:53 Sunny 78 25.6 46 7.8 32 32 NE 15 24 30.20 1023 10 16 0.00 0.00
11:53 am 11:53 Sunny 81 27.2 45 7.2 28 28 ENE 16 26 30.20 1023 10 16 0.00 0.00
12:53 pm 12:53 Sunny 83 28.3 44 6.7 26 26 NE 18 30 30.17 1022 10 16 0.00 0.00
1:53 pm 13:53 Sunny 84 28.9 46 7.8 27 27 NNE 17 28 30.15 1021 10 16 0.00 0.00
2:53 pm 14:53 Sunny 84 28.9 46 7.8 27 27 NNE 18 30 30.13 1020 10 16 0.00 0.00
3:53 pm 15:53 Sunny 84 28.9 46 7.8 27 27 NNE 18 30 30.11 1020 10 16 0.00 0.00
4:53 pm 16:53 Sunny 83 28.3 47 8.3 28 28 NNE 22 35 30.10 1019 10 16 0.00 0.00
5:53 pm 17:53 Sunny 81 27.2 47 8.3 30 30 N 16 26 30.10 1019 10 16 0.00 0.00
6:53 pm 18:53 Sunny 75 23.9 48 8.9 38 38 N 12 19 30.11 1020 10 16 0.00 0.00
7:53 pm 19:53 Clear 73 22.8 46 7.8 38 38 N 10 17 30.12 1020 10 16 0.00 0.00
8:53 pm 20:53 Clear 69 20.6 47 8.3 45 45 N 8 13 30.14 1021 10 16 0.00 0.00
9:53 pm 21:53 Clear 67 19.4 48 8.9 51 51 N 9 15 30.15 1021 10 16 0.00 0.00
10:53 pm 22:53 Clear 65 18.3 49 9.4 56 56 N 7 11 30.17 1022 10 16 0.00 0.00
11:53 pm 23:53 Clear 62 16.7 51 10.6 67 67 N 6 9 30.17 1022 10 16 0.00 0.00

Powered by AerisWeather